Location: Siratepeler Tepesi
(39.1042°N, 32.0781°E)
Time: 01:36:12
(UTC+00:00)

Meteor 1-31 Rocket - Pass Details

Date: 11 April 2026
Orbit: 454 x 472 km, 97.6° (Epoch: 13 May)

Event Time Altitude Azimuth Distance (km) Brightness Sun altitude
Exits shadow 17:48:01 19° 171° (S) 1,198 4.2 -16.1°
Maximum altitude 17:50:30 81° 259° (WSW) 484 2.5 -16.5°
Drops below altitude 10° 17:54:02 10° 346° (NNW) 1,648 5.8 -17.1°
Sets 17:56:06 0° 347° (NNW) 2,531 6.8 -17.5°
